Riverton, WY

6:22 PM MST on February 27, 2017 (GMT -0700)
Riverton Regional

Weather History for KRIW - January, 2012

Change the Weather History Date:

Thursday, January 26, 2012

  Actual Average Record
Temperature  
Mean Temperature 37 °F 20 °F  
Max Temperature 46 °F 31 °F 53 °F (2002)
Min Temperature 27 °F 9 °F -9 °F (2009)
Degree Days  
Heating Degree Days 28 45  
Month to date heating degree days 1000 1176  
Since 1 July heating degree days 4095 4493  
Cooling Degree Days 0 0  
Month to date cooling degree days 0 0  
Year to date cooling degree days 0 0  
Moisture  
Dew Point 19 °F    
Average Humidity 48    
Maximum Humidity 63    
Minimum Humidity 33    
Precipitation  
Precipitation 0.00 in 0.01 in 0.04 in (2009)
Month to date precipitation 0.06 0.20  
Year to date precipitation 0.06 0.20  
Snow  
Snow 0.00 in - - ()
Month to date snowfall 0.3  
Since 1 July snowfall 20.0  
Snow Depth 0.00 in    
Sea Level Pressure  
Sea Level Pressure 29.92 in    
Wind  
Wind Speed 11 mph (WNW)    
Max Wind Speed 30 mph    
Max Gust Speed 46 mph    
Visibility 10 miles    
Events      
T = Trace of Precipitation, MM = Missing Value Source: NWS Daily Summary

Daily Weather History Graph

Daily Weather History Graph

Search for Another Location

Airport or City:

Trip Planner

Search our weather history database for the weather conditions in past years. The results will help you decide how hot, cold, wet, or windy it might be!

Date:

Astronomy

Jan. 26, 2012 Rise Set
Actual Time 7:35 AM MST 5:17 PM MST
Civil Twilight 7:04 AM MST 5:48 PM MST
Nautical Twilight 6:30 AM MST 6:22 PM MST
Astronomical Twilight 5:56 AM MST 6:56 PM MST
Moon 8:57 AM MST (1/26) 9:21 PM MST (1/26)
Length of Visible Light 10h 43m
Length of Day
9h 42m
Waxing Crescent, 13% of the Moon is Illuminated
Jan 26
Waxing Crescent
Jan 30
First Quarter
Feb 7
Full
Feb 14
Last Quarter
Feb 21
New

Hourly Weather History & Observations

Time (MST) Temp. Windchill Dew Point Humidity Pressure Visibility Wind Dir Wind Speed Gust Speed Precip Events Conditions
12:53 AM 35.1 °F 23.0 °F 23.0 °F 61% 30.13 in 10.0 mi West 24.2 mph - N/A   Clear
1:53 AM 35.1 °F 25.2 °F 19.9 °F 54% 30.07 in 10.0 mi WNW 16.1 mph - N/A   Clear
2:53 AM 34.0 °F 24.2 °F 19.0 °F 54% 30.08 in 10.0 mi WNW 15.0 mph - N/A   Clear
3:53 AM 34.0 °F 24.2 °F 19.0 °F 54% 30.08 in 10.0 mi NW 15.0 mph - N/A   Clear
4:53 AM 32.0 °F 22.1 °F 19.0 °F 59% 30.09 in 10.0 mi NW 13.8 mph - N/A   Clear
5:53 AM 32.0 °F 24.8 °F 18.0 °F 56% 30.08 in 10.0 mi NW 8.1 mph - N/A   Clear
6:53 AM 30.2 °F 25.4 °F 17.6 °F 60% 30.06 in 10.0 mi SSW 4.6 mph - N/A   Clear
7:53 AM 28.9 °F 21.9 °F 18.0 °F 64% 30.09 in 10.0 mi WSW 6.9 mph - N/A   Clear
8:53 AM 33.1 °F 28.7 °F 19.9 °F 59% 30.02 in 10.0 mi SW 4.6 mph - N/A   Clear
9:53 AM 37.9 °F 34.4 °F 19.0 °F 47% 29.98 in 10.0 mi WSW 4.6 mph - N/A   Clear
10:53 AM 39.0 °F 36.8 °F 19.0 °F 45% 29.95 in 10.0 mi WSW 3.5 mph - N/A   Clear
11:53 AM 42.1 °F 39.2 °F 19.9 °F 41% 29.89 in 10.0 mi WSW 4.6 mph - N/A   Clear
12:53 PM 43.0 °F - 17.1 °F 35% 29.83 in 10.0 mi Calm Calm - N/A   Clear
1:53 PM 44.1 °F - 18.0 °F 35% 29.78 in 10.0 mi Calm Calm - N/A   Clear
2:53 PM 45.0 °F 42.6 °F 19.0 °F 36% 29.75 in 10.0 mi SSW 4.6 mph - N/A   Clear
3:53 PM 46.4 °F 41.1 °F 21.2 °F 37% 29.75 in 10.0 mi NW 11.5 mph - N/A   Partly Cloudy
4:53 PM 39.9 °F 33.4 °F 21.9 °F 49% 29.77 in 10.0 mi NW 10.4 mph - N/A   Clear
5:53 PM 35.1 °F 27.4 °F 21.9 °F 59% 29.78 in 10.0 mi WNW 10.4 mph - N/A   Clear
6:53 PM 34.0 °F 25.5 °F 21.9 °F 61% 29.82 in 10.0 mi WNW 11.5 mph - N/A   Clear
7:53 PM 32.0 °F 23.6 °F 21.9 °F 66% 29.82 in 10.0 mi NW 10.4 mph - N/A   Clear
8:53 PM 35.1 °F 25.9 °F 21.9 °F 59% 29.82 in 10.0 mi WNW 13.8 mph - N/A   Clear
9:53 PM 37.0 °F 25.6 °F 19.9 °F 50% 29.79 in 10.0 mi WNW 24.2 mph 38.0 mph N/A   Clear
10:53 PM 37.9 °F 25.7 °F 16.0 °F 41% 29.79 in 10.0 mi WNW 29.9 mph 44.9 mph N/A   Clear
11:53 PM 37.0 °F 25.4 °F 15.1 °F 41% 29.82 in 10.0 mi WNW 25.3 mph 39.1 mph N/A   Overcast